Location: Pettit
(39.0209°N, 79.7181°W)
Time: 11:25:41
(UTC+00:00)

ISS - Visible Passes

Search period start: 18 April 2026 00:00
Search period end: 28 April 2026 00:00
Orbit: 416 x 425 km, 51.6° (Epoch: 18 April)

Date Brightness Start Highest point End Pass type
(mag) Time Alt. Az. Time Alt. Az. Time Alt. Az.
18 Apr -3.4 09:36:40 17° SW 09:39:06 61° SE 09:42:27 10° ENE visible
19 Apr -2.6 08:51:25 32° SSE 08:51:54 33° SE 08:55:00 10° ENE visible
20 Apr -1.1 08:06:05 16° E 08:06:05 16° E 08:07:15 10° E visible
20 Apr -3.1 09:39:03 17° W 09:41:22 43° NNW 09:44:37 10° NE visible
21 Apr -3.8 08:53:37 63° W 08:54:02 73° NW 08:57:24 10° NE visible
22 Apr -2.0 08:08:07 31° ENE 08:08:07 31° ENE 08:10:04 10° ENE visible
22 Apr -1.8 09:41:12 10° WNW 09:43:48 20° NNW 09:46:25 10° NNE visible
23 Apr -0.3 07:22:32 10° ENE 07:22:32 10° ENE 07:22:34 10° ENE visible
23 Apr -2.3 08:55:30 25° NW 08:56:19 28° NNW 08:59:18 10° NNE visible
24 Apr -2.1 08:09:52 32° NNE 08:09:52 32° NNE 08:12:07 10° NE visible
24 Apr -1.1 09:44:49 10° NW 09:46:23 13° NNW 09:47:59 10° NNE visible
25 Apr -0.6 07:24:10 15° NE 07:24:10 15° NE 07:24:51 10° NE visible
25 Apr -1.3 08:57:07 12° NW 08:58:47 15° NNW 09:00:54 10° NNE visible
26 Apr -1.6 08:11:23 20° NNW 08:11:23 20° NNW 08:13:47 10° NNE visible
27 Apr -0.8 07:25:36 16° NNE 07:25:36 16° NNE 07:26:37 10° NNE visible
27 Apr -0.8 09:00:27 10° NNW 09:01:22 11° N 09:02:17 10° N visible
